Check out our new BloomSky Weather System.

Active alerts


No alerts


Thunder radar  blitzortung!


Rain radar more information rain snow radar


Visit our other weather sites:

Template documentation
and downloads

And another site



Weather Underground History page Text

Daily Summary for February 6, 2017 Units:  Metric    English   Both
« Previous Day
Next Day »
Daily Weekly Monthly Yearly Custom
  High: Low: Average:
Temperature: 27 °C 19.7 °C 22.7 °C
Dew Point: 21.4 °C 18.9 °C 19.9 °C
Humidity: 96 % 65 % 85 %
Wind Speed: 25.7 km/h 0 km/h 8.7 km/h
Wind Gust: 29 km/h - -
Wind:- - SSE
Pressure: 1016.5 hPa 1010.7 hPa -
Precipitation: 0 mm    
Historical Graphs
 
 
Tabular Data for February 6, 2017
Time Temperature Dew Point Pressure Wind Wind Speed Wind Gust Humidity Rainfall Rate (Hourly)
00:00 20.4 °C 19.2 °C 1016.1 hPa SSW 3.2 km/h 11.3 km/h 93 % 0 mm
00:05 20.4 °C 19.2 °C 1016.1 hPa SE 1.6 km/h 11.3 km/h 93 % 0 mm
00:10 20.4 °C 19.2 °C 1016.1 hPa SSE 3.2 km/h 11.3 km/h 93 % 0 mm
00:15 20.4 °C 19.2 °C 1016.1 hPa SE 4.8 km/h 11.3 km/h 93 % 0 mm
00:16 20.4 °C 19.2 °C 1016.1 hPa SE 1.6 km/h 11.3 km/h 93 % 0 mm
00:22 20.4 °C 19.2 °C 1015.8 hPa SSE 8 km/h 12.9 km/h 93 % 0 mm
00:27 20.4 °C 19.2 °C 1015.8 hPa South 9.7 km/h 12.9 km/h 93 % 0 mm
00:32 20.4 °C 19.2 °C 1015.8 hPa South 11.3 km/h 16.1 km/h 93 % 0 mm
00:37 20.4 °C 19.1 °C 1015.8 hPa SE 11.3 km/h 16.1 km/h 92 % 0 mm
00:42 20.4 °C 19.1 °C 1015.5 hPa South 3.2 km/h 16.1 km/h 92 % 0 mm
00:47 20.4 °C 19.1 °C 1015.5 hPa SSE 4.8 km/h 12.9 km/h 92 % 0 mm
00:52 20.3 °C 19 °C 1015.5 hPa SSE 6.4 km/h 12.9 km/h 92 % 0 mm
00:57 20.4 °C 19.1 °C 1015.5 hPa SSE 12.9 km/h 14.5 km/h 92 % 0 mm
01:02 20.4 °C 19.1 °C 1015.5 hPa SSE 8 km/h 17.7 km/h 92 % 0 mm
01:07 20.4 °C 19.1 °C 1015.5 hPa South 9.7 km/h 17.7 km/h 92 % 0 mm
01:12 20.4 °C 19.1 °C 1015.5 hPa SSE 4.8 km/h 17.7 km/h 92 % 0 mm
01:17 20.4 °C 19.1 °C 1015.5 hPa SSE 6.4 km/h 12.9 km/h 92 % 0 mm
01:22 20.4 °C 19.1 °C 1015.1 hPa SSE 4.8 km/h 12.9 km/h 92 % 0 mm
01:27 20.5 °C 19.2 °C 1015.1 hPa SE 16.1 km/h 17.7 km/h 92 % 0 mm
01:32 20.4 °C 19.1 °C 1015.1 hPa SE 9.7 km/h 17.7 km/h 92 % 0 mm
01:37 20.4 °C 19.1 °C 1015.1 hPa SSE 9.7 km/h 17.7 km/h 92 % 0 mm
01:42 20.4 °C 18.9 °C 1015.1 hPa SSE 8 km/h 16.1 km/h 91 % 0 mm
01:47 20.5 °C 19 °C 1015.1 hPa SE 4.8 km/h 14.5 km/h 91 % 0 mm
01:52 20.5 °C 19 °C 1015.1 hPa SSW 9.7 km/h 14.5 km/h 91 % 0 mm
01:57 20.6 °C 19.1 °C 1015.1 hPa SSE 1.6 km/h 17.7 km/h 91 % 0 mm
02:02 20.6 °C 19.1 °C 1015.1 hPa SSE 8 km/h 19.3 km/h 91 % 0 mm
02:07 20.6 °C 19.1 °C 1015.1 hPa SW 9.7 km/h 20.9 km/h 91 % 0 mm
02:12 20.6 °C 19.1 °C 1015.1 hPa SSE 12.9 km/h 22.5 km/h 91 % 0 mm
02:17 20.7 °C 19.2 °C 1015.1 hPa SSE 8 km/h 22.5 km/h 91 % 0 mm
02:22 20.7 °C 19.2 °C 1015.1 hPa SSW 4.8 km/h 22.5 km/h 91 % 0 mm
02:27 20.7 °C 19 °C 1015.1 hPa SSE 6.4 km/h 19.3 km/h 90 % 0 mm
02:32 20.7 °C 19 °C 1015.1 hPa SE 8 km/h 17.7 km/h 90 % 0 mm
02:37 20.8 °C 19.1 °C 1015.1 hPa South 1.6 km/h 19.3 km/h 90 % 0 mm
02:42 20.8 °C 19.1 °C 1015.1 hPa SSW 12.9 km/h 19.3 km/h 90 % 0 mm
02:47 20.8 °C 19.1 °C 1015.1 hPa South 6.4 km/h 19.3 km/h 90 % 0 mm
02:52 20.8 °C 19.1 °C 1015.1 hPa SSW 8 km/h 17.7 km/h 90 % 0 mm
02:57 20.8 °C 19.1 °C 1015.5 hPa South 4.8 km/h 17.7 km/h 90 % 0 mm
03:02 20.8 °C 19.1 °C 1015.1 hPa SSW 12.9 km/h 19.3 km/h 90 % 0 mm
03:07 20.8 °C 19.1 °C 1015.1 hPa SSE 12.9 km/h 19.3 km/h 90 % 0 mm
03:12 20.8 °C 19.1 °C 1015.1 hPa South 11.3 km/h 19.3 km/h 90 % 0 mm
03:17 20.8 °C 19.1 °C 1015.1 hPa SSE 8 km/h 16.1 km/h 90 % 0 mm
03:22 20.8 °C 18.9 °C 1015.1 hPa SSE 6.4 km/h 16.1 km/h 89 % 0 mm
03:27 20.8 °C 18.9 °C 1015.1 hPa South 9.7 km/h 16.1 km/h 89 % 0 mm
03:32 20.8 °C 19.1 °C 1015.1 hPa South 9.7 km/h 16.1 km/h 90 % 0 mm
03:37 20.8 °C 19.1 °C 1015.1 hPa South 9.7 km/h 14.5 km/h 90 % 0 mm
03:42 20.8 °C 19.1 °C 1015.5 hPa ENE 1.6 km/h 19.3 km/h 90 % 0 mm
03:47 20.8 °C 19.1 °C 1015.1 hPa SSE 4.8 km/h 19.3 km/h 90 % 0 mm
03:52 20.8 °C 19.1 °C 1015.5 hPa South 6.4 km/h 19.3 km/h 90 % 0 mm
03:57 20.8 °C 19.1 °C 1015.5 hPa South 4.8 km/h 19.3 km/h 90 % 0 mm
04:02 20.8 °C 19.3 °C 1015.1 hPa SSE 9.7 km/h 19.3 km/h 91 % 0 mm
04:08 20.7 °C 19.2 °C 1015.1 hPa SSW 3.2 km/h 19.3 km/h 91 % 0 mm
04:13 20.7 °C 19.2 °C 1015.1 hPa SSE 4.8 km/h 12.9 km/h 91 % 0 mm
04:18 20.6 °C 19.1 °C 1015.1 hPa South 14.5 km/h 14.5 km/h 91 % 0 mm
04:23 20.6 °C 19.3 °C 1015.1 hPa ESE 6.4 km/h 14.5 km/h 92 % 0 mm
04:28 20.6 °C 19.3 °C 1015.1 hPa South 4.8 km/h 17.7 km/h 92 % 0 mm
04:33 20.6 °C 19.3 °C 1015.1 hPa South 4.8 km/h 17.7 km/h 92 % 0 mm
04:38 20.6 °C 19.3 °C 1015.5 hPa SW 3.2 km/h 17.7 km/h 92 % 0 mm
04:43 20.6 °C 19.3 °C 1015.5 hPa SE 4.8 km/h 17.7 km/h 92 % 0 mm
04:48 20.7 °C 19.4 °C 1015.5 hPa SE 6.4 km/h 17.7 km/h 92 % 0 mm
04:53 20.7 °C 19.4 °C 1015.5 hPa SSE 8 km/h 17.7 km/h 92 % 0 mm
04:58 20.6 °C 19.3 °C 1015.5 hPa SW 3.2 km/h 12.9 km/h 92 % 0 mm
05:03 20.6 °C 19.3 °C 1015.5 hPa SSW 4.8 km/h 12.9 km/h 92 % 0 mm
05:08 20.6 °C 19.3 °C 1015.5 hPa SW 11.3 km/h 11.3 km/h 92 % 0 mm
05:13 20.6 °C 19.4 °C 1015.5 hPa SSE 4.8 km/h 11.3 km/h 93 % 0 mm
05:18 20.6 °C 19.4 °C 1015.5 hPa SSE 6.4 km/h 11.3 km/h 93 % 0 mm
05:23 20.6 °C 19.4 °C 1015.5 hPa SSE 4.8 km/h 12.9 km/h 93 % 0 mm
05:28 20.6 °C 19.4 °C 1015.5 hPa South 6.4 km/h 12.9 km/h 93 % 0 mm
05:33 20.5 °C 19.3 °C 1015.5 hPa SSE 4.8 km/h 12.9 km/h 93 % 0 mm
05:38 20.5 °C 19.3 °C 1015.5 hPa SSE 3.2 km/h 9.7 km/h 93 % 0 mm
05:43 20.5 °C 19.3 °C 1015.8 hPa Calm   9.7 km/h 93 % 0 mm
05:48 20.5 °C 19.3 °C 1015.8 hPa SSW 3.2 km/h 9.7 km/h 93 % 0 mm
05:53 20.4 °C 19.4 °C 1015.8 hPa SSW 4.8 km/h 8 km/h 94 % 0 mm
05:58 20.4 °C 19.4 °C 1015.8 hPa South 4.8 km/h 9.7 km/h 94 % 0 mm
06:03 20.4 °C 19.4 °C 1015.5 hPa SE 4.8 km/h 9.7 km/h 94 % 0 mm
06:08 20.3 °C 19.3 °C 1015.8 hPa Calm   9.7 km/h 94 % 0 mm
06:13 20.3 °C 19.3 °C 1015.8 hPa SSE 1.6 km/h 9.7 km/h 94 % 0 mm
06:19 20.2 °C 19.2 °C 1015.8 hPa SE 4.8 km/h 9.7 km/h 94 % 0 mm
06:24 20.1 °C 19.1 °C 1015.8 hPa SSW 3.2 km/h 9.7 km/h 94 % 0 mm
06:29 20.1 °C 19.1 °C 1015.8 hPa Calm   9.7 km/h 94 % 0 mm
06:34 20 °C 19.2 °C 1015.8 hPa SSW 1.6 km/h 9.7 km/h 95 % 0 mm
06:39 19.9 °C 19.1 °C 1015.8 hPa Calm   9.7 km/h 95 % 0 mm
06:44 19.9 °C 19.1 °C 1016.1 hPa SE 3.2 km/h 8 km/h 95 % 0 mm
06:49 19.8 °C 19 °C 1016.1 hPa SSE 1.6 km/h 6.4 km/h 95 % 0 mm
06:54 19.7 °C 18.9 °C 1016.1 hPa SSE 1.6 km/h 4.8 km/h 95 % 0 mm
06:59 19.7 °C 18.9 °C 1016.1 hPa South 1.6 km/h 4.8 km/h 95 % 0 mm
07:04 19.7 °C 19 °C 1016.1 hPa SE 1.6 km/h 4.8 km/h 96 % 0 mm
07:09 19.8 °C 19.1 °C 1016.1 hPa SE 1.6 km/h 3.2 km/h 96 % 0 mm
07:14 19.8 °C 19.1 °C 1016.1 hPa ESE 3.2 km/h 3.2 km/h 96 % 0 mm
07:19 19.8 °C 19.1 °C 1016.1 hPa Calm   3.2 km/h 96 % 0 mm
07:24 19.8 °C 19.1 °C 1016.1 hPa South 1.6 km/h 4.8 km/h 96 % 0 mm
07:29 19.9 °C 19.2 °C 1016.1 hPa South 1.6 km/h 4.8 km/h 96 % 0 mm
07:34 19.9 °C 19.2 °C 1016.1 hPa ESE 4.8 km/h 6.4 km/h 96 % 0 mm
07:39 19.9 °C 19.2 °C 1016.1 hPa SE 1.6 km/h 6.4 km/h 96 % 0 mm
07:44 20 °C 19.3 °C 1016.1 hPa SE 1.6 km/h 6.4 km/h 96 % 0 mm
07:49 20.1 °C 19.4 °C 1016.1 hPa SE 1.6 km/h 8 km/h 96 % 0 mm
07:54 20.1 °C 19.4 °C 1016.1 hPa ESE 4.8 km/h 8 km/h 96 % 0 mm
07:59 20.2 °C 19.5 °C 1016.1 hPa ESE 3.2 km/h 8 km/h 96 % 0 mm
08:04 20.3 °C 19.6 °C 1016.1 hPa SE 3.2 km/h 6.4 km/h 96 % 0 mm
08:09 20.3 °C 19.6 °C 1016.1 hPa ESE 8 km/h 8 km/h 96 % 0 mm
08:14 20.4 °C 19.7 °C 1016.1 hPa SSE 4.8 km/h 9.7 km/h 96 % 0 mm
08:19 20.5 °C 19.8 °C 1016.1 hPa SE 3.2 km/h 9.7 km/h 96 % 0 mm
08:24 20.6 °C 19.9 °C 1016.1 hPa SE 8 km/h 9.7 km/h 96 % 0 mm
08:29 20.7 °C 20 °C 1016.1 hPa ESE 3.2 km/h 9.7 km/h 96 % 0 mm
08:34 20.8 °C 20 °C 1016.1 hPa SSW 4.8 km/h 9.7 km/h 95 % 0 mm
08:39 20.9 °C 20.1 °C 1016.1 hPa SE 3.2 km/h 12.9 km/h 95 % 0 mm
08:45 21.1 °C 20.3 °C 1016.5 hPa SSE 6.4 km/h 12.9 km/h 95 % 0 mm
08:50 21.2 °C 20.4 °C 1016.1 hPa SSE 6.4 km/h 12.9 km/h 95 % 0 mm
08:55 21.3 °C 20.3 °C 1016.5 hPa SSE 8 km/h 14.5 km/h 94 % 0 mm
09:00 21.3 °C 20.3 °C 1016.5 hPa SE 6.4 km/h 14.5 km/h 94 % 0 mm
09:05 21.4 °C 20.4 °C 1016.5 hPa South 1.6 km/h 17.7 km/h 94 % 0 mm
09:10 21.5 °C 20.3 °C 1016.5 hPa SSE 11.3 km/h 19.3 km/h 93 % 0 mm
09:15 21.7 °C 20.5 °C 1016.5 hPa SSE 6.4 km/h 19.3 km/h 93 % 0 mm
09:16 21.7 °C 20.5 °C 1016.5 hPa SSE 9.7 km/h 19.3 km/h 93 % 0 mm
09:21 21.9 °C 20.5 °C 1016.5 hPa SSE 8 km/h 19.3 km/h 92 % 0 mm
09:26 22.1 °C 20.6 °C 1016.5 hPa SSE 12.9 km/h 20.9 km/h 91 % 0 mm
09:31 22.2 °C 20.5 °C 1016.5 hPa SE 12.9 km/h 20.9 km/h 90 % 0 mm
09:36 22.2 °C 20.5 °C 1016.5 hPa South 6.4 km/h 22.5 km/h 90 % 0 mm
09:41 22.3 °C 20.6 °C 1016.5 hPa SE 9.7 km/h 22.5 km/h 90 % 0 mm
09:46 22.4 °C 20.7 °C 1016.5 hPa SE 8 km/h 22.5 km/h 90 % 0 mm
09:51 22.6 °C 20.7 °C 1016.5 hPa SSE 6.4 km/h 19.3 km/h 89 % 0 mm
09:56 22.7 °C 20.8 °C 1016.5 hPa South 8 km/h 22.5 km/h 89 % 0 mm
10:01 22.8 °C 20.7 °C 1016.5 hPa East 12.9 km/h 22.5 km/h 88 % 0 mm
10:06 22.9 °C 20.6 °C 1016.5 hPa South 14.5 km/h 22.5 km/h 87 % 0 mm
10:11 23 °C 20.9 °C 1016.5 hPa South 9.7 km/h 19.3 km/h 88 % 0 mm
10:16 23.2 °C 20.7 °C 1016.5 hPa South 12.9 km/h 19.3 km/h 86 % 0 mm
10:21 23.2 °C 20.7 °C 1016.5 hPa SSW 11.3 km/h 24.1 km/h 86 % 0 mm
10:26 23.4 °C 20.9 °C 1016.5 hPa SE 11.3 km/h 24.1 km/h 86 % 0 mm
10:31 23.4 °C 20.7 °C 1016.5 hPa SE 19.3 km/h 24.1 km/h 85 % 0 mm
10:36 23.4 °C 20.7 °C 1016.5 hPa SE 12.9 km/h 24.1 km/h 85 % 0 mm
10:42 23.4 °C 20.7 °C 1016.5 hPa SE 6.4 km/h 24.1 km/h 85 % 0 mm
10:47 23.4 °C 20.7 °C 1016.5 hPa SSE 9.7 km/h 24.1 km/h 85 % 0 mm
10:52 23.4 °C 20.7 °C 1016.1 hPa SSW 4.8 km/h 22.5 km/h 85 % 0 mm
10:57 23.7 °C 20.8 °C 1016.1 hPa SE 8 km/h 17.7 km/h 84 % 0 mm
11:02 23.8 °C 20.9 °C 1016.1 hPa South 11.3 km/h 17.7 km/h 84 % 0 mm
11:07 24.1 °C 21.2 °C 1015.8 hPa SSW 9.7 km/h 19.3 km/h 84 % 0 mm
11:12 24.1 °C 20.8 °C 1015.8 hPa SE 6.4 km/h 19.3 km/h 82 % 0 mm
11:17 24.1 °C 20.8 °C 1015.8 hPa SW 8 km/h 20.9 km/h 82 % 0 mm
11:22 24.1 °C 20.8 °C 1015.8 hPa SSE 9.7 km/h 20.9 km/h 82 % 0 mm
11:27 23.9 °C 20.8 °C 1015.8 hPa South 11.3 km/h 20.9 km/h 83 % 0 mm
11:32 23.9 °C 20.8 °C 1015.8 hPa South 6.4 km/h 19.3 km/h 83 % 0 mm
11:37 24.1 °C 20.8 °C 1015.5 hPa South 4.8 km/h 16.1 km/h 82 % 0 mm
11:42 24.3 °C 21 °C 1015.5 hPa SE 9.7 km/h 16.1 km/h 82 % 0 mm
11:47 24.5 °C 21 °C 1015.5 hPa SSW 8 km/h 17.7 km/h 81 % 0 mm
11:52 24.7 °C 21 °C 1015.1 hPa South 11.3 km/h 19.3 km/h 80 % 0 mm
11:57 24.7 °C 20.8 °C 1015.1 hPa SSW 11.3 km/h 22.5 km/h 79 % 0 mm
12:02 24.8 °C 21.1 °C 1015.1 hPa SE 12.9 km/h 24.1 km/h 80 % 0 mm
12:07 24.9 °C 21 °C 1014.8 hPa SSW 19.3 km/h 25.7 km/h 79 % 0 mm
12:12 25.1 °C 21 °C 1014.8 hPa SSE 9.7 km/h 25.7 km/h 78 % 0 mm
12:17 25.2 °C 21.1 °C 1014.8 hPa South 11.3 km/h 25.7 km/h 78 % 0 mm
12:22 25.4 °C 21.3 °C 1014.8 hPa SSE 9.7 km/h 20.9 km/h 78 % 0 mm
12:27 25.6 °C 21.1 °C 1014.4 hPa South 25.7 km/h 25.7 km/h 76 % 0 mm
12:32 25.4 °C 20.9 °C 1014.4 hPa SSE 9.7 km/h 25.7 km/h 76 % 0 mm
12:37 25.3 °C 21 °C 1014.4 hPa SSW 9.7 km/h 25.7 km/h 77 % 0 mm
12:42 25.4 °C 20.9 °C 1014.1 hPa SSE 16.1 km/h 25.7 km/h 76 % 0 mm
12:47 25.7 °C 20.9 °C 1014.1 hPa SSE 11.3 km/h 24.1 km/h 75 % 0 mm
12:52 25.8 °C 20.8 °C 1013.8 hPa SE 17.7 km/h 24.1 km/h 74 % 0 mm
12:57 26.1 °C 20.9 °C 1013.8 hPa SE 11.3 km/h 29 km/h 73 % 0 mm
13:02 26.4 °C 21.4 °C 1013.8 hPa South 8 km/h 29 km/h 74 % 0 mm
13:07 26.6 °C 20.9 °C 1013.4 hPa SSW 9.7 km/h 29 km/h 71 % 0 mm
13:12 26.7 °C 21 °C 1013.4 hPa SW 17.7 km/h 29 km/h 71 % 0 mm
13:17 26.6 °C 20.9 °C 1013.4 hPa South 6.4 km/h 24.1 km/h 71 % 0 mm
13:22 26.4 °C 20.9 °C 1013.4 hPa South 8 km/h 24.1 km/h 72 % 0 mm
13:27 26.3 °C 20.8 °C 1013.1 hPa South 9.7 km/h 20.9 km/h 72 % 0 mm
13:32 26.3 °C 20.8 °C 1013.1 hPa SE 20.9 km/h 24.1 km/h 72 % 0 mm
13:37 26.1 °C 20.7 °C 1012.8 hPa SSE 12.9 km/h 24.1 km/h 72 % 0 mm
13:42 26.1 °C 20.7 °C 1012.8 hPa SSE 12.9 km/h 24.1 km/h 72 % 0 mm
13:47 26.1 °C 20.9 °C 1012.8 hPa South 6.4 km/h 20.9 km/h 73 % 0 mm
13:52 26.4 °C 20.7 °C 1012.4 hPa SE 14.5 km/h 19.3 km/h 71 % 0 mm
13:57 26.9 °C 21 °C 1012.4 hPa South 14.5 km/h 25.7 km/h 70 % 0 mm
14:02 26.9 °C 20.7 °C 1012.4 hPa SW 14.5 km/h 25.7 km/h 69 % 0 mm
14:07 26.7 °C 20.5 °C 1012.1 hPa SE 9.7 km/h 25.7 km/h 69 % 0 mm
14:12 26.7 °C 20.8 °C 1012.1 hPa East 9.7 km/h 24.1 km/h 70 % 0 mm
14:17 26.9 °C 20.7 °C 1012.1 hPa SE 9.7 km/h 22.5 km/h 69 % 0 mm
14:22 26.9 °C 20.5 °C 1011.7 hPa SSW 12.9 km/h 25.7 km/h 68 % 0 mm
14:27 26.9 °C 20.5 °C 1011.7 hPa SSW 9.7 km/h 27.4 km/h 68 % 0 mm
14:32 26.9 °C 20.5 °C 1011.7 hPa SSE 14.5 km/h 27.4 km/h 68 % 0 mm
14:37 26.8 °C 20.6 °C 1011.7 hPa SSE 9.7 km/h 27.4 km/h 69 % 0 mm
14:42 26.8 °C 20.6 °C 1011.7 hPa South 12.9 km/h 24.1 km/h 69 % 0 mm
14:47 26.8 °C 20.4 °C 1011.7 hPa SSE 14.5 km/h 27.4 km/h 68 % 0 mm
14:52 26.7 °C 20.5 °C 1011.7 hPa SW 9.7 km/h 27.4 km/h 69 % 0 mm
14:57 26.6 °C 20.4 °C 1011.4 hPa SSE 9.7 km/h 27.4 km/h 69 % 0 mm
15:02 26.6 °C 20 °C 1011.4 hPa SSE 14.5 km/h 24.1 km/h 67 % 0 mm
15:07 26.6 °C 20 °C 1011.4 hPa SSE 9.7 km/h 22.5 km/h 67 % 0 mm
15:12 26.7 °C 20.1 °C 1011.4 hPa SSE 11.3 km/h 22.5 km/h 67 % 0 mm
15:17 26.7 °C 20.3 °C 1011.4 hPa South 4.8 km/h 22.5 km/h 68 % 0 mm
15:23 26.8 °C 20.6 °C 1011.4 hPa South 9.7 km/h 22.5 km/h 69 % 0 mm
15:28 27 °C 20.1 °C 1011.1 hPa SE 14.5 km/h 27.4 km/h 66 % 0 mm
15:33 26.9 °C 19.8 °C 1011.1 hPa SE 8 km/h 27.4 km/h 65 % 0 mm
15:38 26.9 °C 20 °C 1011.1 hPa SSW 11.3 km/h 27.4 km/h 66 % 0 mm
15:43 26.9 °C 19.8 °C 1010.7 hPa SSE 9.7 km/h 25.7 km/h 65 % 0 mm
15:48 26.8 °C 19.7 °C 1010.7 hPa SW 12.9 km/h 24.1 km/h 65 % 0 mm
15:53 26.7 °C 19.8 °C 1010.7 hPa ESE 19.3 km/h 22.5 km/h 66 % 0 mm
15:58 26.7 °C 19.8 °C 1010.7 hPa SE 24.1 km/h 24.1 km/h 66 % 0 mm
16:03 26.5 °C 19.6 °C 1010.7 hPa SSE 12.9 km/h 29 km/h 66 % 0 mm
16:08 26.4 °C 19.8 °C 1010.7 hPa SSE 9.7 km/h 29 km/h 67 % 0 mm
16:13 26.3 °C 19.9 °C 1010.7 hPa South 12.9 km/h 29 km/h 68 % 0 mm
16:18 26.2 °C 20.3 °C 1010.7 hPa ESE 12.9 km/h 24.1 km/h 70 % 0 mm
16:23 26.1 °C 20.2 °C 1010.7 hPa SSE 16.1 km/h 24.1 km/h 70 % 0 mm
16:28 26.1 °C 20.2 °C 1010.7 hPa SSE 11.3 km/h 24.1 km/h 70 % 0 mm
16:33 25.9 °C 20.2 °C 1010.7 hPa ESE 9.7 km/h 27.4 km/h 71 % 0 mm
16:38 25.7 °C 20.3 °C 1010.7 hPa SSW 16.1 km/h 27.4 km/h 72 % 0 mm
16:43 25.6 °C 20.4 °C 1010.7 hPa SSW 9.7 km/h 27.4 km/h 73 % 0 mm
16:48 25.4 °C 20.2 °C 1010.7 hPa SSE 14.5 km/h 27.4 km/h 73 % 0 mm
16:53 25.3 °C 20.3 °C 1010.7 hPa ESE 9.7 km/h 24.1 km/h 74 % 0 mm
16:58 25.3 °C 20.5 °C 1011.1 hPa SSW 6.4 km/h 27.4 km/h 75 % 0 mm
17:03 25.3 °C 20.3 °C 1011.1 hPa SE 11.3 km/h 27.4 km/h 74 % 0 mm
17:08 25.3 °C 20.3 °C 1010.7 hPa SSE 11.3 km/h 27.4 km/h 74 % 0 mm
17:13 25.1 °C 20.1 °C 1011.1 hPa SSW 11.3 km/h 22.5 km/h 74 % 0 mm
17:19 25 °C 20 °C 1011.1 hPa South 12.9 km/h 22.5 km/h 74 % 0 mm
17:24 24.8 °C 19.8 °C 1011.1 hPa SSW 11.3 km/h 20.9 km/h 74 % 0 mm
17:29 24.8 °C 20.1 °C 1011.1 hPa South 9.7 km/h 25.7 km/h 75 % 0 mm
17:34 24.7 °C 20.2 °C 1011.4 hPa South 11.3 km/h 25.7 km/h 76 % 0 mm
17:39 24.5 °C 20 °C 1011.4 hPa ESE 8 km/h 25.7 km/h 76 % 0 mm
17:44 24.3 °C 20 °C 1011.4 hPa SSE 8 km/h 19.3 km/h 77 % 0 mm
17:49 24.3 °C 20.2 °C 1011.7 hPa South 12.9 km/h 17.7 km/h 78 % 0 mm
17:54 24.2 °C 20.1 °C 1011.7 hPa SSW 4.8 km/h 17.7 km/h 78 % 0 mm
17:59 24.1 °C 20.2 °C 1012.1 hPa SSE 8 km/h 17.7 km/h 79 % 0 mm
18:04 23.9 °C 20 °C 1012.1 hPa SSW 11.3 km/h 16.1 km/h 79 % 0 mm
18:09 23.9 °C 20 °C 1011.7 hPa South 16.1 km/h 16.1 km/h 79 % 0 mm
18:14 23.9 °C 20 °C 1012.1 hPa SSW 17.7 km/h 22.5 km/h 79 % 0 mm
18:19 23.8 °C 20.1 °C 1011.7 hPa SE 9.7 km/h 22.5 km/h 80 % 0 mm
18:24 23.7 °C 20 °C 1011.7 hPa SSE 6.4 km/h 24.1 km/h 80 % 0 mm
18:29 23.6 °C 20.1 °C 1011.4 hPa ESE 9.7 km/h 24.1 km/h 81 % 0 mm
18:34 23.6 °C 20.1 °C 1011.4 hPa SE 4.8 km/h 24.1 km/h 81 % 0 mm
18:39 23.4 °C 20.1 °C 1011.4 hPa SE 9.7 km/h 17.7 km/h 82 % 0 mm
18:44 23.3 °C 20.1 °C 1011.1 hPa South 12.9 km/h 17.7 km/h 82 % 0 mm
18:49 23.3 °C 20.2 °C 1011.1 hPa SE 8 km/h 17.7 km/h 83 % 0 mm
18:54 23.2 °C 20.2 °C 1011.1 hPa ESE 4.8 km/h 19.3 km/h 83 % 0 mm
18:59 23.1 °C 20.2 °C 1011.1 hPa SE 9.7 km/h 19.3 km/h 84 % 0 mm
19:04 22.9 °C 20.1 °C 1011.1 hPa SSE 9.7 km/h 19.3 km/h 84 % 0 mm
19:09 22.8 °C 20 °C 1011.1 hPa SSE 6.4 km/h 16.1 km/h 84 % 0 mm
19:14 22.7 °C 20 °C 1011.1 hPa South 9.7 km/h 16.1 km/h 85 % 0 mm
19:19 22.7 °C 19.9 °C 1011.4 hPa SSE 9.7 km/h 19.3 km/h 84 % 0 mm
19:25 22.7 °C 19.9 °C 1011.4 hPa SSE 4.8 km/h 19.3 km/h 84 % 0 mm
19:30 22.6 °C 19.9 °C 1011.7 hPa SSE 8 km/h 19.3 km/h 85 % 0 mm
19:35 22.6 °C 19.9 °C 1011.7 hPa South 11.3 km/h 17.7 km/h 85 % 0 mm
19:40 22.6 °C 19.9 °C 1011.7 hPa ESE 4.8 km/h 16.1 km/h 85 % 0 mm
19:45 22.6 °C 19.9 °C 1011.7 hPa ESE 11.3 km/h 19.3 km/h 85 % 0 mm
19:50 22.6 °C 19.9 °C 1011.7 hPa SSE 6.4 km/h 19.3 km/h 85 % 0 mm
19:55 22.4 °C 19.9 °C 1011.7 hPa SSE 8 km/h 17.7 km/h 86 % 0 mm
20:00 22.4 °C 19.9 °C 1011.7 hPa South 6.4 km/h 16.1 km/h 86 % 0 mm
20:05 22.4 °C 19.9 °C 1011.4 hPa ESE 11.3 km/h 17.7 km/h 86 % 0 mm
20:10 22.3 °C 20 °C 1011.4 hPa SE 9.7 km/h 17.7 km/h 87 % 0 mm
20:15 22.3 °C 20 °C 1011.4 hPa SW 11.3 km/h 17.7 km/h 87 % 0 mm
20:20 22.3 °C 20 °C 1011.4 hPa SE 8 km/h 17.7 km/h 87 % 0 mm
20:25 22.2 °C 19.9 °C 1011.4 hPa SSE 8 km/h 17.7 km/h 87 % 0 mm
20:30 22.3 °C 20 °C 1011.4 hPa SE 8 km/h 17.7 km/h 87 % 0 mm
20:35 22.2 °C 19.9 °C 1011.4 hPa SSE 4.8 km/h 17.7 km/h 87 % 0 mm
20:40 22.2 °C 20.1 °C 1011.1 hPa SSE 9.7 km/h 17.7 km/h 88 % 0 mm
20:45 22.1 °C 20 °C 1011.4 hPa South 4.8 km/h 19.3 km/h 88 % 0 mm
20:50 22.1 °C 20 °C 1011.4 hPa SSE 8 km/h 19.3 km/h 88 % 0 mm
20:55 22.1 °C 20 °C 1011.4 hPa South 8 km/h 19.3 km/h 88 % 0 mm
21:00 22.1 °C 20 °C 1011.4 hPa ESE 19.3 km/h 19.3 km/h 88 % 0 mm
21:05 22.1 °C 20 °C 1011.4 hPa SSE 4.8 km/h 19.3 km/h 88 % 0 mm
21:10 22.1 °C 20 °C 1011.4 hPa SE 9.7 km/h 19.3 km/h 88 % 0 mm
21:15 22.1 °C 20 °C 1011.4 hPa SSW 6.4 km/h 20.9 km/h 88 % 0 mm
21:21 22.1 °C 20 °C 1011.1 hPa SSW 11.3 km/h 20.9 km/h 88 % 0 mm
21:26 22.1 °C 20 °C 1011.4 hPa South 9.7 km/h 22.5 km/h 88 % 0 mm
21:31 22.1 °C 20 °C 1011.4 hPa SE 6.4 km/h 22.5 km/h 88 % 0 mm
21:36 22.1 °C 20 °C 1011.4 hPa SSE 4.8 km/h 22.5 km/h 88 % 0 mm
21:41 22.1 °C 20 °C 1011.7 hPa South 4.8 km/h 16.1 km/h 88 % 0 mm
21:46 22 °C 19.9 °C 1011.7 hPa SE 8 km/h 14.5 km/h 88 % 0 mm
21:51 22 °C 19.9 °C 1011.7 hPa SSE 8 km/h 14.5 km/h 88 % 0 mm
21:56 22 °C 19.9 °C 1011.7 hPa SE 9.7 km/h 20.9 km/h 88 % 0 mm
22:01 22 °C 20.1 °C 1011.4 hPa SE 9.7 km/h 20.9 km/h 89 % 0 mm
22:06 21.9 °C 20 °C 1011.4 hPa SSW 4.8 km/h 20.9 km/h 89 % 0 mm
22:11 21.9 °C 20 °C 1011.4 hPa SE 12.9 km/h 20.9 km/h 89 % 0 mm
22:16 21.9 °C 20 °C 1011.4 hPa SSE 8 km/h 20.9 km/h 89 % 0 mm
22:21 21.9 °C 20 °C 1011.4 hPa SSW 4.8 km/h 20.9 km/h 89 % 0 mm
22:26 21.9 °C 20 °C 1011.4 hPa SSE 8 km/h 20.9 km/h 89 % 0 mm
22:31 21.9 °C 20 °C 1011.1 hPa SSW 17.7 km/h 20.9 km/h 89 % 0 mm
22:36 21.9 °C 19.8 °C 1011.1 hPa WSW 8 km/h 20.9 km/h 88 % 0 mm
22:41 21.9 °C 19.8 °C 1011.1 hPa South 6.4 km/h 20.9 km/h 88 % 0 mm
22:46 21.9 °C 19.8 °C 1011.1 hPa SSE 8 km/h 20.9 km/h 88 % 0 mm
22:51 21.9 °C 19.8 °C 1011.1 hPa SSE 11.3 km/h 19.3 km/h 88 % 0 mm
22:56 21.9 °C 19.8 °C 1011.1 hPa South 20.9 km/h 24.1 km/h 88 % 0 mm
23:01 21.9 °C 19.8 °C 1011.1 hPa SE 12.9 km/h 24.1 km/h 88 % 0 mm
23:06 21.9 °C 19.8 °C 1011.1 hPa SSE 6.4 km/h 24.1 km/h 88 % 0 mm
23:11 21.9 °C 19.8 °C 1011.1 hPa South 19.3 km/h 24.1 km/h 88 % 0 mm
23:16 21.9 °C 19.8 °C 1011.1 hPa South 12.9 km/h 24.1 km/h 88 % 0 mm
23:21 21.9 °C 19.8 °C 1011.1 hPa South 9.7 km/h 24.1 km/h 88 % 0 mm
23:26 21.9 °C 19.8 °C 1011.1 hPa South 17.7 km/h 24.1 km/h 88 % 0 mm
23:31 21.9 °C 19.8 °C 1011.1 hPa SSW 11.3 km/h 24.1 km/h 88 % 0 mm
23:36 21.8 °C 19.7 °C 1010.7 hPa South 11.3 km/h 24.1 km/h 88 % 0 mm
23:41 21.8 °C 19.7 °C 1010.7 hPa SSE 8 km/h 19.3 km/h 88 % 0 mm
23:46 21.8 °C 19.9 °C 1011.1 hPa SSE 11.3 km/h 19.3 km/h 89 % 0 mm
23:51 21.8 °C 19.9 °C 1010.7 hPa SSE 11.3 km/h 17.7 km/h 89 % 0 mm
23:57 21.8 °C 19.9 °C 1010.7 hPa South 14.5 km/h 20.9 km/h 89 % 0 mm
Spring, Texas: Villages of Bridgestone
Compliments of Weather Underground - 2.75 mb

Script developed by  Jim McMurry - jmcmurry@mwt.net Adapted for the template by  Wim van der Kuil - Leuven-Template.eu

You find our weather info also at:

UK Metoffice

WeatherCloud

Weather Underground

Mid-South Weather Network

AWEKAS

Citizen Weather Observer Program (CWOP)

HAMweather, WeatherForYou, PWS Weather

Equipment we use:

Weather-station
Davis Vantage Vue

Weather-program
Meteohub

Weather-server
Debian 7.9 x86 (Guest)

Provider
DreamHost

Davis Vantage Vue

Meteohub

Debian 7.9 x86 (Guest)

DreamHost